User: anonymous   Login
Location: Nashville
(36.1660°N, 86.7840°W)
Time: 04:09:17
(UTC-05:00)
Language:

NOAA 19 - Orbit

View from above orbital plane
View from above orbital plane
View from above satellite
View from above satellite

Ground track
Ground track

The orbit data is extracted from the following two-line orbital elements,

1 33591U 09005A   22135.90801780  .00000190  00000-0  12778-3 0  9999
2 33591  99.1507 169.3566 0012850 279.9788  79.9933 14.12562924683593
Epoch (UTC): 15 May 2022 21:47:32
Eccentricity: 0.0012850
inclination: 99.1507°
perigee height: 841 km
apogee height: 860 km
right ascension of ascending node: 169.3566°
argument of perigee: 279.9788°
revolutions per day: 14.12562924
mean anomaly at epoch: 79.9933°
orbit number at epoch: 68359

The dashed part of the orbit path shows where the satellite is in the earth's shadow,  

DLR